Погода Малые Дербеты

Погода Малые Дербеты : погода сейчас, прогноз погоды и архив. Всё, что Вы хотите узнать о погоде Малые Дербеты!

Хотите узнать прогноз погоды Малые Дербеты? Тогда Вам сюда: Погода Малые Дербеты

Поиск расширенной информации на нашем сайте:

Другие новости

Новости СМИ2

Главная страница сайта

Новости сайта

02.10.2013

Напоминаем, что на нашем новом сайте вы можете получить высокодетализированные прогнозы погоды по пунктам России, СНГ и мира (включающие важные для авиации метеовеличины, такие как направление и скорость ветра, видимость, явления погоды, количество и форма облачности, нижняя и верхняя граница облачности), а также ознакомиться с разнообразными материалами по авиационной метеорологии и подборкой полезных ссылок на эту тему.

Сайт Метеоцентр.Азия посвящён разработке технологий оптимизации авиаметеорологического обслуживания, включая проектирование и перспективное создание нескольких автоматизированных авиаметеорологических систем:
- система выпуска высокодетальных прогностических карт явлений погоды для нижнего воздушного пространства по России и ближнему зарубежью;
- система верификации прогнозов TAF (выпускаемых синоптиками официальных АМСГ РФ и ближнего зарубежья) и AUTOTAF (выпускаемых сайтом Метеоцентр.Азия) - выявление ошибок, онлайн-сопоставление с фактической погодой METAR, автоматическое внесение коррективов в прогнозы при резком отклонении фактической погоды от прогноза, подсчёт оправдываемости прогнозов по элементам и в целом;
- система обработки, анализа и отображения авиаметеорологической информации для применения провайдерами метеорологической информации.

Рекомендуем: Заказать Письмо от Деда Мороза с доставкой на дом.

Погода Малые Дербеты - сегодня

Время (UTC), дата Ветер
(°,м/с) 
Видим.   Явления Облачность Т
(°С)
Тd
(°С)
f(%) Тe
(°С)
Pmin
(гПа)
dP
(гПа)
Po
(мм)
O2
(г/м3)
Тmin Tmax R s Состояние
почвы
03 17.02.17 290 (З) 20000 м    ясно 
-12.7 -15.4 80 -16  1028.5  1.3  770  327  -12.9    0.0  11  равномерный
сухой снег
100% 
06 17.02.17 300 (СЗ) 20000 м    ясно 
-11 -14.5 75 -14  1030  1.5  772  325  -13.9         
09 17.02.17 290 (З) 20000 м    ясно 
-7.7 -12.4 69 -10  1030.3  0.4  772  321           
12 17.02.17 290 (З) 20000 м    ясно 
-6.3 -11.2 68 -9  1029.3  -1  771  319           
15 17.02.17 250 (З) 20000 м    ясно 
-10.2 -13.1 79 -10  1029.7  0.4  771  324    -6       
18 17.02.17 140 (ЮВ) 20000 м    ясно 
-16.8 -18.5 87 -17  1029.3  -0.4  771  333           
21 17.02.17 220 (ЮЗ) 20000 м  [диам. изморози 2 мм]  ясно 
-12.8 -14.7 86 -15  1028.7  -0.6  771  327           
00 18.02.17 170 (Ю) 20000 м  [диам. изморози 2 мм]  9/9 540 м 
[Sc]
-10.3 -12.2 86 -12  1027.3  -1.4  770  323           
03 18.02.17 200 (Ю) 20000 м  [диам. изморози 0 мм]  9/9 500 м 
[Sc]
-9.1 -11.5 83 -11  1025.7  -1.6  768  321  -17.6      10  равномерный
сухой снег
100% 
06 18.02.17 200 (Ю) 20000 м    9/0 средняя 
[Ac As]
-6.5 -10 76 -9  1024.8  -0.8  768  318           
09 18.02.17 220 (ЮЗ) 20000 м    9/0 средняя 
[Ac As]
-3.6 -7.8 73 -7  1024.2  -0.6  767  314           
12 18.02.17 210 (ЮЗ) 20000 м    9/0 средняя 
[Ac As]
-0.7 -4.9 73 -2  1022.5  -1.6  766  310           
18 18.02.17 240 (ЮЗ) 20000 м    10/0 средняя 
[Ac trans]
-1 -4.5 77 -3  1023.1  0.5  766  310           
21 18.02.17 230 (ЮЗ) 20000 м    9/0 средняя 
[Ac As]
-0.6 -2.3 88 -2  1023.4  0.3  767  310           
00 19.02.17 230 (ЮЗ) 20000 м    9/0 средняя 
[Ac As]
-0.5 -2.5 86 -2  1023.5  767  310           
03 19.02.17 240 (ЮЗ) 20000 м    10/0 средняя 
[Ac trans]
-2.1 -5.2 79 -5  1024.1  0.6  767  312  -2.2      10  равномерный
сухой снег
100% 
06 19.02.17 220 (ЮЗ) 20000 м    9/0 средняя 
[Ac und]
+0.1 -3.8 75 -2  1025.4  1.4  768  310  -2.7         
09 19.02.17 250 (З) 20000 м    9/0 средняя 
[Ac und]
+2.3 -2.2 72 +2  1025.9  0.6  769  307           
12 19.02.17 260 (З) 20000 м    10/0 верхняя 
[Ci fib]
+3.5 -1.4 70 +2  1026.1  0.6  769  306           
15 19.02.17 230 (ЮЗ) 20000 м    9/0 средняя 
[Ac As]
+1.7 -1.4 80 1026.8  0.6  769  308    +3.6       
18 19.02.17 220 (ЮЗ) 20000 м    9/0 средняя 
[Ac As]
+1.9 -1.4 79 +1  1026.9  0.2  769  308           
21 19.02.17 210 (ЮЗ) 20000 м    6/0 средняя 
[Ac trans]
+1.4 -1.5 81 +1  1026.6  -0.4  769  309           
00 20.02.17 220 (ЮЗ) 20000 м    10/0 средняя 
[Ac und]
+0 -3 80 -1  1025.9  -0.7  769  310           
03 20.02.17 220 (ЮЗ) 20000 м    9/9 570 м 
[Sc]
+0.6 -2.3 81 1025.3  -0.6  768  309  -0.2      равномерный
мокрый или
старый снег
100% 
06 20.02.17 220 (ЮЗ) 20000 м    10/0 средняя 
[Ac und]
+1.5 -1.7 79 +1  1025.2  0.1  768  308           
Время (UTC), дата Ветер
(°,м/с) 
Видим.   Явления Облачность Т
(°С)
Тd
(°С)
f(%) Тe
(°С)
Pmin
(гПа)
dP
(гПа)
Po
(мм)
O2
(г/м3)
Тmin Tmax R s Состояние
почвы

Для получения пояснительной информации подведите курсор к названию столбца.

ПОГОДА Малые Дербеты - архив

Всё, что Вы хотите узнать о погоде Малые Дербеты - удобно и подробно!

Выберите нужную дату (начиная с 1 января 2015* года) и нажмите кнопку "Найти".
Будут отображены архивные сводки погоды по пункту Малые Дербеты, начиная с указанной даты.


Отображать данные в формате CSV (для использования в таблицах Excel)


Внимание! Наш архив погоды предназначен исключительно для личного некоммерческого использования в познавательных целях. Если Вам необходимы официальные справки о состоянии погоды (для производственных, юридических, коммерческих и т.п. целей), обращайтесь в органы Росгидромета.

*Примечание: данная дата относится к архиву по метеостанциям СССР (Россия, СНГ, Балтия).
Архив по метеостанциям Зарубежной Европы и Азии (кроме Китая) хранится 10 дней, по другим регионам земного шара (Китай, Африка, Америка, Австралия, Океания) - 1 день.

Малые Дербеты - район местоположения метеостанции


Название, широта, долгота, высота метеостанции:
Малые Дербеты 47.9°ш. 44.7°д. 9 м над ур. моря [Российская Федерация]

Дополнительная информация

В oтличие oт бoльшинства пoгoдных сайтoв мы публикуем пoдрoбную метеoинфoрмацию в детальнoм прoфессиoнальнoм фoрмате.

Характеристики температуры и влажнoсти вoздуха измеряются на высoте 2 м в тени вдали oт зданий и деревьев.
Скoрoсть ветра измеряется на высoте 10 м (на урoвне рoста челoвека скoрoсть ветра ниже в 1.5-2 раза). Если метеoстанция нахoдится в гoрoде или в лесу, тo скoрoсть ветра занижена на 2-4 м/с пo сравнению с oткрытым местoм. Скoрoсть ветра над акватoриями крупных рек и oзёр, а также на вершинах хoлмoв на 2-5 м/с выше, чем в oбычных услoвиях.
Атмoсфернoе давление в разных тoчках местнoсти мoжет значительнo oтличаться oт давления на метеoстанции, в зависимoсти oт услoвий рельефа (при пoдъёме на 10 м давление пoнижается примернo на 1 мм рт.ст.).